SCP
0 0 0 0 0 0 0 0 0 0 0 0 0 0 0 0 0 0 0 0 0 0 0 0 0 0 0 0 0 0 0 0 0 0 0 0 0 0 0 0 0 0 0
0 0 0 0 0 0 0 0 0 0 0 0 0 0 0 0 0 0 0 0 0 0 0 0 0 0 0 0 0 0 0 0 0 0 0 0 0 0 0 0 0 0 0
0 0 0 0 0 0 0 0 0 0 0 0 0 0 0 0 0 0 0 0 0 0 0 0 0 0 0 0 0 0 0 0 0 0 0 0 0 0 0 0 0 0 0
0 0 0 0 0 0 0 0 0 0 0 0 0 0 0 0 0 0 0 0 0 0 0 0 0 0 0 0 0 0 0 0 0 0 0 0 0 0 0 0 0 0 0
0 0 0 0 0 0 0 0 0 0 0 0 0 0 0 0 0 0 0 0 0 0 0 0 0 0 0 0 0 0 0 0 0 0 0 0 0 0 0 0 0 0 0
0 0 0 0 0 0 0 0 0 0 0 0 0 0 0 0 0 0 0 0 0 0 0 0 0 0 0 0 0 0 0 0 0 0 0 0 0 0 0 0 0 0 0
0 0 0 0 0 0 0 0 0 0 0 0 0 0 0 0 0 0 0 0 0 0 0 0 0 0 0 0 0 0 0 0 0 0 0 0 0 0 0 0 0 0 0
0 0 0 0 0 0 0 0 0 0 0 0 0 0 0 0 0 0 0 0 0 0 0 0 0 0 0 0 0 0 0 0 0 0 0 0 0 0 0 0 0 0 0
0 0 0 0 0 0 0 0 0 0 0 0 0 0 0 0 0 0 0 0 0 0 0 0 0 0 0 0 0 0 0 0 0 0 0 0 0 0 0 0 0 0 0
0 0 0 0 0 0 0 0 0 0 0 0 0 0 0 0 0 0 0 0 0 0 0 0 0 0 0 0 0 0 0 0 0 0 0 0 0 0 0 0 0 0 0
0 0 0 0 0 0 0 0 0 0 0 0 0 0 -0 -0 0 0 0 0 0 0 0 0 0 0 0 0 0 0 0 0 0 0 0 0 0 0 0 0 0 0 0
0 0 0 0 0 0 0 0 0 0 0 0 0 0 -0 -0 -0 0 0 0 0 0 0 0 0 0 0 0 0 0 0 0 0 0 0 0 0 0 0 0 0 0 0
0 0 0 0 0 0 0 0 0 0 0 0 0 0 0 0 0 0 0 0 0 0 0 0 0 0 0 0 0 0 0 0 0 0 0 0 0 0 0 0 0 0 0
0 0 0 0 0 0 0 0 0 0 0 0 0 0 0 0 0 0 0 0 0 0 0 0 0 0 0 0 0 0 0 0 0 0 0 0 0 0 0 0 0 0 0
0 0 0 0 0 0 0 0 0 0 0 0 0 0 0 0 0 0 0 0 0 0 0 0 0 0 0 0 0 0 0 0 0 0 0 0 0 0 0 0 0 0 0
0 0 0 0 0 0 0 0 0 0 0 0 0 0 0 0 0 0 0 0 0 0 0 0 0 0 0 0 0 0 0 0 0 0 0 0 0 0 0 0 0 0 0
0 0 0 0 0 0 0 0 0 0 0 0 0 0 0 0 0 0 0 0 0 0 0 0 0 0 0 0 0 0 0 0 0 0 0 0 0 0 0 0 0 0 0
0 0 0 0 0 0 0 0 0 0 0 0 0 0 0 0 0 0 0 0 0 0 0 0 0 0 0 0 0 0 0 0 0 0 0 0 0 0 0 0 0 0 0
0 0 0 0 0 0 0 0 0 0 0 0 0 0 0 0 0 0 0 0 0 0 0 0 0 0 0 0 0 0 0 0 0 0 0 0 0 0 0 0 0 0 0
0 0 0 0 0 0 0 0 0 0 0 0 0 0 0 0 0 0 0 0 0 0 0 0 0 0 0 0 0 0 0 0 0 0 0 0 0 0 0 0 0 0 0
0 0 0 0 0 0 0 0 0 0 0 0 0 0 0 0 0 0 0 0 0 0 0 0 0 0 0 0 0 0 0 0 0 0 0 0 0 0 0 0 0 0 0
0 0 0 0 0 0 0 0 0 0 0 0 0 0 0 0 0 0 0 0 0 0 0 0 0 0 0 0 0 0 0 0 0 0 0 0 0 0 0 0 0 0 0
0 0 0 0 0 0 0 0 0 0 0 0 0 0 0 0 0 0 0 0 0 0 0 0 0 0 0 0 0 0 0 0 0 0 0 0 0 0 0 0 0 0 0
0 0 0 0 0 0 0 0 0 0 0 0 0 0 0 0 0 0 0 0 0 0 0 0 0 0 0 0 0 0 0 0 0 0 0 0 0 0 0 0 0 0 0
0 0 0 0 0 0 0 0 0 0 0 0 0 0 0 0 0 0 0 0 0 0 0 0 0 0 0 0 0 0 0 0 0 0 0 0 0 0 0 0 0 0 0
0 0 0 0 0 0 0 0 0 0 0 0 0 0 0 0 0 0 0 0 0 0 0 0 0 0 0 0 0 0 0 0 0 0 0 0 0 0 0 0 0 0 0
Wind_Speed
3 1 2 3 3 4 5 5 5 4 4 4 4 3 3 2 2 2 3 3 3 3 3 3 3 3 3 3 3 3 4 3 2 3 2 2 3 3 3 3 3 4 4
2 1 2 3 4 5 5 5 5 5 5 4 3 3 3 2 2 2 3 3 3 3 3 4 3 3 3 4 4 4 3 2 3 2 2 1 2 2 2 2 3 3 3
3 3 3 3 3 4 5 5 5 5 5 4 4 4 4 3 2 2 2 2 3 3 3 3 3 3 3 3 3 3 4 3 2 2 2 2 1 1 2 2 2 3 3
3 3 3 3 4 4 4 5 5 5 5 5 6 7 5 4 3 2 2 2 2 3 3 3 3 3 3 3 3 3 3 3 2 1 2 2 2 1 1 2 1 2 2
4 4 4 4 3 3 4 4 5 5 5 5 6 6 4 3 3 3 3 2 2 2 2 3 3 3 2 3 3 2 3 2 3 2 1 1 2 1 1 1 2 2 1
2 2 1 1 2 2 3 4 5 4 4 5 5 5 5 5 5 4 3 2 1 1 2 2 2 3 2 2 2 2 2 2 2 2 2 2 1 1 1 1 2 3 2
1 1 1 2 2 3 3 4 5 4 4 4 4 4 5 6 6 5 4 3 2 1 1 1 2 2 2 2 2 2 2 2 2 2 1 1 1 1 1 1 1 2 2
0 0 2 2 3 3 4 4 5 4 4 4 3 3 4 4 3 3 3 3 2 2 2 2 2 2 2 2 2 2 1 1 1 1 1 1 0 1 1 1 1 1 2
1 1 0 1 2 3 3 4 4 4 4 4 4 3 3 3 3 3 3 2 2 2 3 2 2 2 2 2 2 2 1 1 1 1 1 1 0 0 1 1 1 2 2
3 2 2 1 1 2 2 2 3 3 3 3 3 3 3 3 3 3 3 3 2 2 3 3 3 2 2 2 3 2 1 1 1 1 1 1 1 1 1 1 1 1 2
2 2 2 1 1 1 2 2 2 2 2 3 3 3 3 3 3 3 3 3 2 3 3 3 3 3 3 3 2 2 2 2 1 1 1 2 1 1 1 1 1 1 2
3 3 2 2 2 1 1 1 1 1 2 2 2 3 3 3 3 3 3 3 3 3 3 3 3 3 2 3 3 3 2 2 2 2 2 2 1 2 2 2 2 2 2
3 2 2 2 1 1 0 0 0 1 1 2 2 2 2 3 3 3 3 3 3 3 3 3 3 3 3 3 3 3 3 3 3 3 3 3 2 2 2 3 3 2 3
3 2 2 2 1 1 1 1 1 1 1 2 2 2 3 3 3 3 3 3 3 3 3 3 3 3 3 3 3 2 2 2 2 2 3 3 4 4 3 3 3 3 3
3 3 2 2 2 2 2 1 2 1 1 2 2 2 2 2 2 3 3 3 3 3 3 3 3 2 3 3 3 3 3 2 2 2 3 3 4 6 5 4 3 3 3
4 3 3 2 2 2 3 2 2 2 1 2 2 2 2 2 2 3 3 3 2 2 2 3 3 3 3 4 5 3 3 3 3 3 3 3 4 5 7 8 8 7 5
4 4 3 3 3 3 3 3 3 2 2 2 2 2 2 2 2 3 3 3 3 2 2 3 3 3 4 5 6 5 3 3 3 4 4 4 4 5 3 6 8 8 9
4 4 4 4 4 3 3 3 2 2 2 2 2 2 2 2 2 2 3 3 2 3 3 3 3 3 4 5 5 5 3 3 3 4 4 5 4 5 5 4 4 5 6
4 4 4 4 4 3 3 2 2 2 2 3 3 3 3 3 3 3 3 2 2 2 2 3 3 3 4 5 6 5 2 3 3 4 4 4 4 7 8 5 5 6 6
4 4 4 3 3 3 2 2 2 2 3 3 3 3 3 3 4 4 3 2 2 3 2 3 3 3 3 6 6 5 2 3 3 3 4 6 7 8 8 5 5 6 6
4 4 3 3 3 3 2 2 2 3 3 2 2 2 2 3 3 3 2 2 2 2 2 2 3 3 4 5 6 6 3 3 3 3 4 4 8 9 9 8 6 8 7
5 4 3 4 3 2 1 1 2 2 1 1 1 1 2 2 2 2 2 2 2 2 2 2 2 2 3 4 5 7 7 6 4 4 4 4 8 9 9 7 8 10 8
4 4 3 3 3 2 1 2 3 2 1 0 1 1 1 1 2 2 3 2 2 2 2 2 2 2 2 3 6 7 7 7 4 4 6 7 8 8 6 8 9 8 4
4 3 3 3 3 3 2 2 2 1 0 1 1 1 1 1 1 1 2 2 3 3 3 3 3 2 2 2 3 3 3 4 4 4 5 7 8 7 6 6 5 4 4
4 2 2 2 3 3 3 3 2 1 0 1 1 1 1 1 1 1 2 3 3 4 4 4 3 3 3 4 6 4 3 3 3 3 3 3 3 3 3 3 3 3 3
3 3 3 3 3 3 3 3 2 1 1 1 1 1 1 1 1 1 1 2 3 4 6 6 6 5 6 7 8 8 7 7 6 4 3 3 3 3 3 4 4 3 4
Wind_Direction
266 225 178 163 157 162 156 156 148 146 139 136 138 134 126 107 92 86 81 83 81 87 91 89 85 79 79 76 88 101 87 66 56 77 62 39 47 54 43 37 47 43 35
284 239 188 167 172 174 169 162 158 154 152 149 143 128 122 113 104 91 79 76 85 89 97 98 100 91 87 78 75 91 96 73 46 82 102 56 13 19 23 30 42 37 32
236 229 206 192 180 179 179 170 170 159 153 137 118 105 91 86 91 87 86 76 91 92 89 97 103 99 101 106 92 88 96 115 64 53 99 129 189 312 340 27 32 25 30
239 221 206 197 194 192 179 167 161 156 157 144 142 139 140 141 154 145 129 108 96 101 99 102 100 104 104 108 106 79 83 112 111 68 44 76 124 134 318 328 3 14 22
231 218 207 200 191 178 167 160 150 156 157 153 155 150 139 133 124 120 117 112 102 100 105 117 116 113 106 111 109 88 82 98 113 113 96 71 58 78 134 285 318 336 339
242 232 207 160 152 146 148 150 151 156 157 154 153 151 147 137 132 132 135 138 119 106 93 108 121 122 117 124 133 118 108 104 99 104 102 112 127 136 128 209 294 302 299
222 191 163 159 158 150 151 153 151 157 158 158 159 162 159 154 157 158 159 153 146 140 155 130 136 130 127 129 121 117 121 119 117 125 121 119 122 137 148 168 272 290 296
337 199 194 180 170 162 158 156 160 160 157 161 167 164 161 160 163 162 156 164 172 171 161 159 148 129 120 124 125 122 137 124 143 139 125 125 158 156 155 170 193 297 296
355 341 354 155 163 161 162 164 164 163 164 167 162 156 162 169 166 159 152 162 161 158 155 161 151 142 136 137 136 146 155 151 171 163 153 174 211 203 206 188 184 192 261
6 2 5 53 141 157 151 141 160 169 163 163 167 168 168 168 159 151 159 163 166 161 161 164 159 150 149 150 146 146 147 156 186 175 160 206 237 214 230 215 223 217 226
343 345 356 19 56 76 124 142 150 141 146 161 164 162 168 163 156 159 171 172 167 164 169 177 176 171 169 161 158 162 156 171 193 200 195 221 221 216 224 228 229 237 233
360 359 2 22 45 64 89 137 152 160 169 168 160 163 164 165 170 173 179 172 174 176 176 180 184 192 187 175 177 185 189 196 207 219 222 237 237 232 227 228 234 239 240
4 6 16 24 14 358 308 190 200 197 167 152 158 164 168 176 185 186 180 177 179 181 180 183 193 200 199 195 197 195 204 214 222 224 228 237 228 243 248 247 243 245 255
345 352 357 354 345 338 321 296 285 262 181 165 173 187 194 192 191 184 179 180 178 184 189 191 199 203 203 205 208 205 215 222 235 239 237 237 230 237 242 251 247 248 254
334 333 328 324 324 322 318 301 287 271 213 182 191 208 207 191 178 174 178 179 181 191 187 187 196 201 205 207 206 210 216 219 234 246 248 249 251 254 253 256 246 244 253
312 313 310 306 298 294 292 283 267 260 224 204 212 210 194 189 188 182 176 175 183 186 186 197 197 206 225 227 231 234 223 230 236 248 256 258 255 256 264 268 266 255 250
301 298 296 288 284 279 272 268 257 246 217 216 223 213 200 199 195 186 178 186 189 186 201 212 206 215 231 234 235 243 238 233 241 245 251 260 258 268 265 272 276 271 263
300 299 297 294 289 284 288 281 264 226 217 220 223 219 211 210 195 184 191 194 193 194 207 224 217 219 233 237 239 244 243 235 240 242 243 248 253 252 257 260 266 268 269
286 286 285 288 290 290 287 278 268 236 221 228 226 218 209 204 193 196 200 197 196 209 217 225 218 215 233 241 244 248 228 238 244 246 247 245 247 253 260 262 266 274 276
301 301 303 303 296 292 279 244 243 232 236 238 233 219 209 203 202 202 203 204 208 218 224 236 230 225 231 238 244 249 231 235 246 253 252 251 252 257 262 258 254 267 273
313 314 308 297 288 287 267 247 243 246 255 255 241 223 214 211 206 200 203 190 202 202 220 241 250 238 238 241 243 247 244 231 239 252 259 255 256 262 265 265 258 264 275
323 323 316 311 318 322 294 272 270 279 288 261 233 229 221 219 204 181 193 191 182 195 220 238 257 250 246 250 247 249 252 254 249 251 258 258 262 266 269 272 269 274 280
315 321 318 319 332 340 321 276 297 316 315 281 238 238 234 225 208 191 192 196 190 197 218 223 240 255 257 249 254 256 259 263 268 259 260 267 272 276 276 275 275 274 269
313 318 325 325 324 328 324 298 298 308 284 255 269 252 226 233 220 214 203 201 204 208 219 227 234 245 255 256 253 248 252 258 265 263 261 270 272 276 279 285 284 270 259
317 318 310 305 308 320 323 323 318 303 258 257 260 256 245 220 223 239 225 227 229 226 227 229 228 231 244 250 258 262 258 246 245 258 263 263 266 262 265 267 266 266 268
314 318 314 311 313 317 317 321 321 296 226 264 267 255 252 238 223 235 313 310 277 273 268 260 255 256 258 264 264 265 268 269 264 271 261 263 262 262 265 269 272 270 267